GW3550 Weather Reports


Display with metric or nautical units.
time (UTC)temp
F
wind
direction
speed
MPH
gust
MPH
rain 1hr
in
rain 24hr
in
rain mn
in
humidity
%
barometer
mb
20260903092239 73 224 0.0 0.0 0.00 0.00 0.00 98 1020.5
20260903091737 73 232 0.0 0.0 0.00 0.00 0.00 97 1020.5
20260903091232 73 232 0.0 0.0 0.00 0.00 0.00 97 1020.7
20260903090727 73 232 0.0 0.0 0.00 0.00 0.00 97 1020.5
20260903090226 73 232 0.0 0.0 0.00 0.00 0.00 97 1020.3
20260903085720 73 232 0.0 0.0 0.00 0.00 0.00 97 1020.4
20260903085215 74 230 0.0 0.0 0.00 0.00 0.00 97 1020.4
20260903084713 74 232 0.0 0.0 0.00 0.00 0.00 97 1020.4
20260903084208 74 237 0.0 0.0 0.00 0.00 0.00 97 1020.4
20260903083703 74 245 0.0 1.0 0.00 0.00 0.00 97 1020.4
20260903083158 74 230 0.0 0.0 0.00 0.00 0.00 97 1020.5
20260903082651 74 233 0.0 0.0 0.00 0.00 0.00 96 1020.7
20260903082147 74 220 0.0 0.0 0.00 0.00 0.00 96 1020.8
20260903081636 74 233 0.0 0.0 0.00 0.00 0.00 96 1020.8
20260903081132 74 230 0.0 0.0 0.00 0.00 0.00 97 1020.8
20260903080628 74 230 0.0 0.0 0.00 0.00 0.00 97 1020.8
20260903080125 74 230 0.0 0.0 0.00 0.00 0.00 97 1021.0
20260903075619 74 230 0.0 0.0 0.00 0.00 0.00 97 1020.8
20260903075114 74 230 0.0 0.0 0.00 0.00 0.00 97 1020.7
20260903074613 74 231 0.0 0.0 0.00 0.00 0.00 97 1020.8
20260903074108 74 231 0.0 0.0 0.00 0.00 0.00 97 1020.8
20260903073604 74 230 0.0 0.0 0.00 0.00 0.00 97 1020.4
20260903073059 74 230 0.0 0.0 0.00 0.00 0.00 97 1020.4
20260903072555 74 230 0.0 0.0 0.00 0.00 0.00 97 1020.4
20260903072051 74 230 0.0 0.0 0.00 0.00 0.00 97 1020.7
20260903071548 74 229 0.0 0.0 0.00 0.00 0.00 96 1020.4
20260903071047 74 229 0.0 0.0 0.00 0.00 0.00 96 1020.2
20260903070542 74 229 0.0 0.0 0.00 0.00 0.00 96 1020.4
20260903070038 75 231 0.0 0.0 0.00 0.00 0.00 95 1020.5
20260903065537 75 231 0.0 0.0 0.00 0.00 0.00 95 1020.5
20260903065036 75 235 0.0 0.0 0.00 0.00 0.00 95 1020.1
20260903064531 76 233 0.0 0.0 0.00 0.00 0.00 94 1020.2
20260903064027 76 231 0.0 0.0 0.00 0.00 0.00 94 1020.3
20260903063522 76 230 0.0 0.0 0.00 0.00 0.00 94 1020.7
20260903063017 76 230 0.0 0.0 0.00 0.00 0.00 94 1020.3
20260903062512 76 227 0.0 0.0 0.00 0.00 0.00 94 1020.5
20260903062008 76 230 0.0 0.0 0.00 0.00 0.00 94 1020.3
20260903061503 76 230 0.0 0.0 0.00 0.00 0.00 94 1020.4
20260903060957 76 230 0.0 0.0 0.00 0.00 0.00 94 1020.5
20260903060452 76 230 0.0 0.0 0.00 0.00 0.00 94 1020.7
20260903055950 76 231 0.0 0.0 0.00 0.00 0.00 94 1020.5
20260903055448 76 228 0.0 0.0 0.00 0.00 0.00 94 1020.7
20260903054943 76 231 0.0 0.0 0.00 0.00 0.00 93 1020.8
20260903054437 76 232 0.0 0.0 0.00 0.00 0.00 93 1020.8
20260903053933 76 221 0.0 0.0 0.00 0.00 0.00 93 1020.8
20260903053433 76 229 0.0 0.0 0.00 0.00 0.00 94 1020.7
20260903052930 76 222 0.0 0.0 0.00 0.00 0.00 94 1020.8
20260903052426 76 231 0.0 0.0 0.00 0.00 0.00 94 1020.7
20260903051921 76 228 0.0 0.0 0.00 0.00 0.00 94 1020.7
20260903051416 77 233 0.0 0.0 0.00 0.00 0.00 93 1020.7
20260903050912 77 231 0.0 0.0 0.00 0.00 0.00 92 1020.8
20260903050410 77 222 0.0 0.0 0.00 0.00 0.00 92 1020.5
20260903045905 77 231 0.0 0.0 0.00 0.00 0.00 92 1020.7
20260903045401 77 225 0.0 0.0 0.00 0.00 0.00 92 1020.9
20260903044857 77 231 0.0 0.0 0.00 0.00 0.00 92 1020.9
20260903044352 77 231 0.0 0.0 0.00 0.00 0.00 92 1020.7
20260903043849 77 230 0.0 0.0 0.00 0.00 0.00 91 1020.7
20260903043343 78 235 0.0 0.0 0.00 0.00 0.00 91 1020.8
20260903042841 78 232 0.0 0.0 0.00 0.00 0.00 90 1020.7
20260903042337 78 232 0.0 0.0 0.00 0.00 0.00 91 1021.0
20260903041833 77 231 0.0 0.0 0.00 0.00 0.00 91 1021.0
20260903041329 77 231 0.0 0.0 0.00 0.00 0.00 90 1020.9
20260903040825 78 225 0.0 0.0 0.00 0.00 0.00 90 1020.7
20260903040323 78 225 0.0 0.0 0.00 0.00 0.00 89 1020.8
20260903035820 78 225 0.0 0.0 0.00 0.00 0.00 88 1020.9
20260903035315 78 225 0.0 0.0 0.00 0.00 0.00 88 1020.9
20260903034810 79 224 0.0 0.0 0.00 0.00 0.00 87 1020.9
20260903034305 79 232 0.0 0.0 0.00 0.00 0.00 87 1020.8
20260903033801 79 234 0.0 0.0 0.00 0.00 0.00 86 1021.1
20260903033255 79 230 0.0 0.0 0.00 0.00 0.00 85 1020.8
20260903032750 79 231 0.0 0.0 0.00 0.00 0.00 85 1021.1
20260903032246 79 232 0.0 0.0 0.00 0.00 0.00 83 1021.0
20260903031741 80 235 0.0 0.0 0.00 0.00 0.00 83 1021.1
20260903031235 80 234 0.0 0.0 0.00 0.00 0.00 83 1021.1
20260903030731 80 225 0.0 0.0 0.00 0.00 0.00 82 1021.2
20260903030226 79 231 0.0 0.0 0.00 0.00 0.00 82 1021.1
20260903025716 79 231 0.0 0.0 0.00 0.00 0.00 82 1021.0
20260903025212 80 234 0.0 0.0 0.00 0.00 0.00 82 1021.4
20260903024712 80 233 0.0 0.0 0.00 0.00 0.00 81 1021.1
20260903024211 80 234 0.0 0.0 0.00 0.00 0.00 81 1021.1
20260903023706 80 234 0.0 0.0 0.00 0.00 0.00 80 1021.2
20260903023201 81 233 0.0 0.0 0.00 0.00 0.00 79 1021.1
20260903022655 81 231 0.0 0.0 0.00 0.00 0.00 79 1021.1
20260903022150 81 228 0.0 0.0 0.00 0.00 0.00 79 1021.1
20260903021649 81 228 0.0 0.0 0.00 0.00 0.00 79 1020.9
20260903021144 81 223 0.0 0.0 0.00 0.00 0.00 80 1021.1
20260903020639 81 232 0.0 0.0 0.00 0.00 0.00 80 1021.1
20260903020134 80 230 0.0 0.0 0.00 0.00 0.00 80 1021.1
20260903015630 80 223 0.0 0.0 0.00 0.00 0.00 80 1020.9
20260903015125 81 233 0.0 0.0 0.00 0.00 0.00 82 1021.1
20260903014624 82 231 0.0 0.0 0.00 0.00 0.00 79 1020.7
20260903014124 82 231 0.0 0.0 0.00 0.00 0.00 78 1020.7
20260903013619 83 233 0.0 0.0 0.00 0.00 0.00 77 1020.5
20260903013114 82 233 0.0 0.0 0.00 0.00 0.00 77 1020.3
20260903012612 83 233 0.0 0.0 0.00 0.00 0.00 77 1020.4
20260903012111 83 232 0.0 0.0 0.00 0.00 0.00 75 1020.3
20260903011606 84 231 0.0 0.0 0.00 0.00 0.00 74 1020.3
20260903011105 83 230 0.0 0.0 0.00 0.00 0.00 74 1020.1
20260903010601 84 232 0.0 0.0 0.00 0.00 0.00 74 1020.3
20260903010059 84 230 0.0 0.0 0.00 0.00 0.00 71 1020.0
20260903005554 84 213 0.0 0.0 0.00 0.00 0.00 72 1019.9
20260903005049 84 231 0.0 0.0 0.00 0.00 0.00 73 1020.0
20260903004544 85 238 0.0 0.0 0.00 0.00 0.00 72 1019.9
20260903004040 84 231 0.0 0.0 0.00 0.00 0.00 72 1019.8
20260903003535 84 235 0.0 0.0 0.00 0.00 0.00 72 1019.9
20260903003030 86 231 0.0 0.0 0.00 0.00 0.00 69 1019.8
20260903002525 87 232 0.0 0.0 0.00 0.00 0.00 65 1019.8
20260903002019 87 227 0.0 0.0 0.00 0.00 0.00 64 1019.9
20260903001514 87 232 0.0 0.0 0.00 0.00 0.00 64 1019.8
20260903001014 87 232 0.0 0.0 0.00 0.00 0.00 63 1019.8
20260903000509 88 232 0.0 0.0 0.00 0.00 0.00 62 1019.7
20260903000008 89 229 0.0 0.0 0.00 0.00 0.00 61 1019.7
20260902235502 90 235 0.0 0.0 0.00 0.00 0.00 61 1019.7
20260902234957 90 91 0.0 0.0 0.00 0.00 0.00 59 1019.6
20260902234451 90 91 0.0 1.0 0.00 0.00 0.00 58 1019.6
20260902233950 91 211 0.0 1.0 0.00 0.00 0.00 57 1019.7
20260902233449 91 44 2.0 2.0 0.00 0.00 0.00 55 1019.7
20260902232944 91 231 0.0 0.0 0.00 0.00 0.00 56 1019.7
20260902232439 92 235 0.0 0.0 0.00 0.00 0.00 56 1019.8
20260902231938 92 177 0.0 3.0 0.00 0.00 0.00 54 1019.8
20260902231434 93 38 2.0 3.0 0.00 0.00 0.00 54 1019.7
20260902230928 93 237 1.0 1.0 0.00 0.00 0.00 53 1019.7
20260902230427 93 39 2.0 4.0 0.00 0.00 0.00 51 1019.6
20260902225922 94 84 0.0 2.0 0.00 0.00 0.00 51 1019.8
20260902225417 94 76 0.0 4.0 0.00 0.00 0.00 50 1019.8
20260902224916 94 6 1.0 3.0 0.00 0.00 0.00 50 1020.0
20260902224415 94 322 1.0 4.0 0.00 0.00 0.00 48 1019.7
20260902223912 94 32 2.0 2.0 0.00 0.00 0.00 49 1019.9
20260902223407 94 45 2.0 3.0 0.00 0.00 0.00 50 1019.9
20260902222901 94 47 2.0 7.0 0.00 0.00 0.00 49 1019.8
20260902222359 94 46 2.0 4.0 0.00 0.00 0.00 49 1019.9
20260902221854 95 36 3.0 4.0 0.00 0.00 0.00 49 1019.8
20260902221353 95 67 3.0 4.0 0.00 0.00 0.00 48 1019.9
20260902220849 95 19 2.0 2.0 0.00 0.00 0.00 48 1020.0
20260902220348 94 26 3.0 6.0 0.00 0.00 0.00 49 1019.9
20260902215843 95 90 1.0 4.0 0.00 0.00 0.00 49 1020.0
20260902215338 95 30 4.0 7.0 0.00 0.00 0.00 47 1020.1
20260902214834 96 12 1.0 3.0 0.00 0.00 0.00 47 1019.9
20260902214333 97 243 1.0 2.0 0.00 0.00 0.00 46 1019.9
20260902213828 95 359 1.0 3.0 0.00 0.00 0.00 48 1020.0
20260902213324 95 40 3.0 4.0 0.00 0.00 0.00 48 1020.0
20260902212822 96 22 3.0 4.0 0.00 0.00 0.00 47 1020.2
20260902212320 96 30 3.0 3.0 0.00 0.00 0.00 46 1019.9
20260902211816 96 348 3.0 4.0 0.00 0.00 0.00 45 1020.2
20260902211311 95 122 2.0 6.0 0.00 0.00 0.00 47 1019.9
20260902210806 95 258 1.0 2.0 0.00 0.00 0.00 46 1019.8
20260902210301 95 15 2.0 6.0 0.00 0.00 0.00 47 1020.0
20260902205759 96 82 4.0 7.0 0.00 0.00 0.00 46 1019.9
20260902205254 96 125 2.0 6.0 0.00 0.00 0.00 49 1019.9
20260902204749 98 228 0.0 0.0 0.00 0.00 0.00 46 1020.0
20260902204244 97 240 0.0 0.0 0.00 0.00 0.00 48 1020.2
20260902203744 95 235 0.0 1.0 0.00 0.00 0.00 50 1020.3
20260902203245 95 231 0.0 3.0 0.00 0.00 0.00 49 1020.2
20260902202740 96 263 0.0 1.0 0.00 0.00 0.00 47 1020.3
20260902202236 95 42 0.0 1.0 0.00 0.00 0.00 49 1020.3
20260902201733 95 53 2.0 3.0 0.00 0.00 0.00 48 1020.3
20260902201231 97 39 2.0 4.0 0.00 0.00 0.00 45 1020.4
20260902200727 98 5 1.0 6.0 0.00 0.00 0.00 45 1020.5
20260902200222 98 231 0.0 2.0 0.00 0.00 0.00 46 1020.5
20260902195718 96 252 0.0 2.0 0.00 0.00 0.00 48 1020.9
20260902195217 98 319 1.0 1.0 0.00 0.00 0.00 47 1020.8
20260902194716 97 228 0.0 1.0 0.00 0.00 0.00 46 1020.8
20260902194212 97 53 1.0 2.0 0.00 0.00 0.00 49 1020.8
20260902193707 95 237 0.0 3.0 0.00 0.00 0.00 54 1020.8
20260902193203 95 58 2.0 3.0 0.00 0.00 0.00 54 1020.7
20260902192701 95 109 0.0 1.0 0.00 0.00 0.00 51 1021.2
20260902192200 93 231 0.0 0.0 0.00 0.00 0.00 53 1021.2
20260902191655 93 144 0.0 1.0 0.00 0.00 0.00 54 1021.2
20260902191149 96 27 3.0 6.0 0.00 0.00 0.00 49 1021.2
20260902190645 98 237 1.0 2.0 0.00 0.00 0.00 46 1021.0
20260902190140 98 220 0.0 1.0 0.00 0.00 0.00 47 1021.3
20260902185635 96 177 0.0 1.0 0.00 0.00 0.00 52 1021.5
20260902185131 96 251 1.0 2.0 0.00 0.00 0.00 52 1021.5
20260902184626 96 61 2.0 2.0 0.00 0.00 0.00 51 1021.5
20260902184122 93 55 4.0 4.0 0.00 0.00 0.00 50 1021.6
20260902183618 94 16 2.0 2.0 0.00 0.00 0.00 51 1021.6
20260902183114 95 80 0.0 4.0 0.00 0.00 0.00 50 1021.6
20260902182610 97 135 0.0 2.0 0.00 0.00 0.00 48 1021.5
20260902182106 98 247 0.0 1.0 0.00 0.00 0.00 46 1021.6
20260902181602 96 231 0.0 2.0 0.00 0.00 0.00 52 1021.6
20260902181101 97 86 0.0 0.0 0.00 0.00 0.00 49 1021.7
20260902180601 94 187 0.0 2.0 0.00 0.00 0.00 53 1021.7
20260902180057 93 94 2.0 3.0 0.00 0.00 0.00 54 1021.8
20260902175556 91 53 1.0 2.0 0.00 0.00 0.00 56 1022.1
20260902175053 91 276 1.0 4.0 0.00 0.00 0.00 54 1021.9
20260902174549 92 238 0.0 4.0 0.00 0.00 0.00 51 1021.9
20260902174044 92 22 2.0 4.0 0.00 0.00 0.00 52 1022.0
20260902173543 93 7 3.0 4.0 0.00 0.00 0.00 53 1022.0
20260902173039 95 66 0.0 1.0 0.00 0.00 0.00 52 1022.0
20260902172533 95 208 0.0 1.0 0.00 0.00 0.00 50 1022.3
20260902172028 93 192 1.0 2.0 0.00 0.00 0.00 53 1022.2
20260902171524 93 70 1.0 3.0 0.00 0.00 0.00 54 1022.5
20260902171020 93 212 0.0 1.0 0.00 0.00 0.00 54 1022.6
20260902170514 93 292 0.0 2.0 0.00 0.00 0.00 54 1022.5
20260902170010 92 325 3.0 4.0 0.00 0.00 0.00 54 1022.6
20260902165509 93 315 0.0 1.0 0.00 0.00 0.00 54 1022.6
20260902165004 93 98 0.0 1.0 0.00 0.00 0.00 54 1022.6
20260902164459 94 37 3.0 6.0 0.00 0.00 0.00 54 1022.7
20260902163958 95 353 2.0 3.0 0.00 0.00 0.00 53 1022.8
20260902163454 95 30 3.0 4.0 0.00 0.00 0.00 53 1022.9
20260902162951 94 209 1.0 3.0 0.00 0.00 0.00 52 1022.9
20260902162446 93 239 0.0 4.0 0.00 0.00 0.00 55 1022.9
20260902161941 94 99 0.0 1.0 0.00 0.00 0.00 56 1022.9
20260902161436 93 242 1.0 1.0 0.00 0.00 0.00 56 1022.9
20260902160932 94 218 0.0 2.0 0.00 0.00 0.00 56 1022.8
20260902160427 92 206 0.0 0.0 0.00 0.00 0.00 62 1022.9
20260902155925 92 38 3.0 3.0 0.00 0.00 0.00 60 1023.2
20260902155421 91 49 1.0 3.0 0.00 0.00 0.00 63 1023.0
20260902154914 92 35 1.0 1.0 0.00 0.00 0.00 60 1023.3
20260902154410 93 22 1.0 2.0 0.00 0.00 0.00 58 1023.2
20260902153903 92 254 1.0 2.0 0.00 0.00 0.00 60 1022.9
20260902153403 91 250 0.0 0.0 0.00 0.00 0.00 64 1023.1
20260902152858 92 257 2.0 3.0 0.00 0.00 0.00 61 1023.3
20260902152354 92 63 2.0 3.0 0.00 0.00 0.00 62 1023.2
20260902151850 90 21 1.0 1.0 0.00 0.00 0.00 64 1023.1
20260902151344 91 359 2.0 2.0 0.00 0.00 0.00 64 1023.3
20260902150839 91 108 1.0 1.0 0.00 0.00 0.00 65 1023.1
20260902150336 90 232 0.0 1.0 0.00 0.00 0.00 65 1023.3
20260902145835 89 343 0.0 3.0 0.00 0.00 0.00 67 1023.1
20260902145330 88 237 0.0 0.0 0.00 0.00 0.00 69 1023.3
20260902144825 89 142 0.0 2.0 0.00 0.00 0.00 69 1023.2
20260902144322 89 247 1.0 2.0 0.00 0.00 0.00 67 1023.2
20260902143816 88 202 0.0 3.0 0.00 0.00 0.00 70 1023.0
20260902143311 89 27 2.0 2.0 0.00 0.00 0.00 68 1023.1
20260902142806 87 330 0.0 2.0 0.00 0.00 0.00 71 1023.1
20260902142257 88 48 1.0 1.0 0.00 0.00 0.00 69 1023.1
20260902141757 88 150 1.0 1.0 0.00 0.00 0.00 70 1023.0
20260902141252 86 69 0.0 1.0 0.00 0.00 0.00 73 1023.1
20260902140747 86 46 3.0 3.0 0.00 0.00 0.00 73 1023.0
20260902140242 86 34 2.0 4.0 0.00 0.00 0.00 72 1023.1
20260902135741 86 240 1.0 1.0 0.00 0.00 0.00 71 1023.1
20260902135237 85 41 0.0 1.0 0.00 0.00 0.00 75 1023.1
20260902134736 84 43 2.0 3.0 0.00 0.00 0.00 75 1022.9
20260902134232 84 31 2.0 3.0 0.00 0.00 0.00 74 1023.2
20260902133727 84 62 1.0 3.0 0.00 0.00 0.00 76 1023.1
20260902133226 84 8 1.0 2.0 0.00 0.00 0.00 74 1023.2
20260902132722 83 45 2.0 2.0 0.00 0.00 0.00 77 1023.1
20260902132217 83 43 0.0 1.0 0.00 0.00 0.00 76 1023.2
20260902131712 83 46 0.0 1.0 0.00 0.00 0.00 76 1023.1
20260902131209 84 88 0.0 2.0 0.00 0.00 0.00 75 1023.3
20260902130709 85 240 0.0 0.0 0.00 0.00 0.00 75 1023.1
20260902130204 83 240 0.0 0.0 0.00 0.00 0.00 79 1023.4
20260902125659 83 240 0.0 0.0 0.00 0.00 0.00 77 1023.1
20260902125156 82 240 0.0 0.0 0.00 0.00 0.00 80 1023.3
20260902124652 82 240 0.0 0.0 0.00 0.00 0.00 80 1023.2
20260902124152 81 240 0.0 0.0 0.00 0.00 0.00 81 1023.3
20260902123647 81 240 0.0 0.0 0.00 0.00 0.00 83 1023.1
20260902123142 81 240 0.0 0.0 0.00 0.00 0.00 82 1023.0
20260902122637 80 240 0.0 0.0 0.00 0.00 0.00 83 1023.0
20260902122133 78 240 0.0 0.0 0.00 0.00 0.00 86 1023.2
20260902121627 77 240 0.0 0.0 0.00 0.00 0.00 89 1022.8
20260902121122 77 240 0.0 0.0 0.00 0.00 0.00 91 1023.1
20260902120618 76 240 0.0 0.0 0.00 0.00 0.00 92 1022.8
20260902120114 76 240 0.0 0.0 0.00 0.00 0.00 93 1022.8
20260902115609 76 240 0.0 0.0 0.00 0.00 0.00 93 1022.9
20260902115105 76 240 0.0 0.0 0.00 0.00 0.00 93 1022.9
20260902114601 75 240 0.0 0.0 0.00 0.00 0.00 95 1022.6
20260902114100 74 240 0.0 0.0 0.00 0.00 0.00 96 1022.6
20260902113556 73 241 0.0 0.0 0.00 0.00 0.00 97 1022.5
20260902113051 73 241 0.0 0.0 0.00 0.00 0.00 98 1022.5
20260902112546 72 241 0.0 0.0 0.00 0.00 0.00 99 1022.4
20260902112043 72 241 0.0 0.0 0.00 0.00 0.00 99 1022.4
20260902111539 72 241 0.0 0.0 0.00 0.00 0.00 99 1022.3
20260902111034 72 241 0.0 0.0 0.00 0.00 0.00 99 1022.3
20260902110530 72 241 0.0 0.0 0.00 0.00 0.00 99 1022.4
20260902110025 72 241 0.0 0.0 0.00 0.00 0.00 99 1022.4
20260902105520 72 241 0.0 0.0 0.00 0.00 0.00 99 1022.2
20260902105020 72 241 0.0 0.0 0.00 0.00 0.00 99 1022.3
20260902104516 72 241 0.0 0.0 0.00 0.00 0.00 99 1022.3
20260902104010 72 241 0.0 0.0 0.00 0.00 0.00 98 1022.1
20260902103505 73 241 0.0 0.0 0.00 0.00 0.00 99 1022.3
20260902103001 72 241 0.0 0.0 0.00 0.00 0.00 99 1022.3
20260902102457 72 241 0.0 0.0 0.00 0.00 0.00 99 1022.2
20260902101953 72 241 0.0 0.0 0.00 0.00 0.00 99 1022.0
20260902101448 72 241 0.0 0.0 0.00 0.00 0.00 99 1022.1
20260902100946 72 241 0.0 0.0 0.00 0.00 0.00 99 1022.2
20260902100441 72 241 0.0 0.0 0.00 0.00 0.00 99 1021.9
20260902095936 72 241 0.0 0.0 0.00 0.00 0.00 99 1022.0
20260902095431 73 241 0.0 0.0 0.00 0.00 0.00 98 1022.0
20260902094930 73 241 0.0 0.0 0.00 0.00 0.00 98 1021.9
20260902094426 73 241 0.0 0.0 0.00 0.00 0.00 98 1021.9
20260902093921 73 241 0.0 0.0 0.00 0.00 0.00 98 1021.8
20260902093416 73 241 0.0 0.0 0.00 0.00 0.00 98 1021.8
20260902092914 73 241 0.0 0.0 0.00 0.00 0.00 99 1021.6